User: anonymous   Login
Location: Aula-Vintri
(58.3875°N, 22.4322°E)
Time: 12:58:42
(UTC+00:00)
Language:

Falcon 9 debris - Orbit

View from above orbital plane
View from above orbital plane
View from above satellite
View from above satellite

Ground track
Ground track

The orbit data is extracted from the following two-line orbital elements,

1 44298U 19029BR  19347.57304198 +.00001809 +00000-0 +47835-4 0  9998
2 44298 053.0025 286.9799 0004019 189.9554 170.1371 15.44229692032660
Epoch (UTC): 13 December 2019 13:45:10
Eccentricity: 0.0004019
inclination: 53.0025°
perigee height: 431 km
apogee height: 436 km
right ascension of ascending node: 286.9799°
argument of perigee: 189.9554°
revolutions per day: 15.44229692
mean anomaly at epoch: 170.1371°
orbit number at epoch: 3266

The dashed part of the orbit path shows where the satellite is in the earth's shadow,  

DLR